sat.trackr.live / text

‹ back to catalog

STARLINK-31134

NORAD 58621 · 2023-203D

PAYLOAD ACTIVE UNKNOWN

§ Identity

Operator
Country
US
Launch date
2023-12-23
Launch site
AFETR
Launch vehicle
Mass (kg)
RCS (m²)

Purposes: comms

External: N2YO · Heavens-Above · Gunter

§ Orbital elements

Epoch: 2026-05-24T23:27:59.881824Z

Period
94.27 min
Inclination
43.0056°
Eccentricity
0.0001482
Mean motion
15.27601591 rev/d
Perigee alt
482.0 km
Apogee alt
484.0 km
Semi-major
6,861.1 km
B*
3.4169e-5
RAAN
356.6889°
Arg perigee
257.1110°
Mean anomaly
102.9576°
Rev number
13,522

§ Raw data

STARLINK-311341 58621U 23203D   26144.97777641  .00000679  00000+0  34169-4 0  99952 58621  43.0056 356.6889 0001482 257.1110 102.9576 15.27601591135229

JSON: /api/v1/satellites/58621 · /tle

For live sub-satellite position, see the globe view (requires WebGL).

§ Visibility from observer

Set your observer location to see the next 7 days of passes ≥ 10°. The values pass through the URL so the page stays shareable.

No JS? Fill the form by hand. The geolocation button needs JavaScript.